TimeCST,TemperatureF,Dew PointF,Humidity,Sea Level PressureIn,VisibilityMPH,Wind Direction,Wind SpeedMPH,Gust SpeedMPH,PrecipitationIn,Events,Conditions,WindDirDegrees,DateUTC
12:53 AM,33.1,28.9,85,30.40,10.0,North,4.6,-,N/A,,Clear,350,2012-11-28 06:53:00
1:53 AM,33.1,28.0,82,30.40,10.0,Calm,Calm,-,N/A,,Clear,0,2012-11-28 07:53:00
2:53 AM,32.0,27.0,82,30.40,10.0,Calm,Calm,-,N/A,,Clear,0,2012-11-28 08:53:00
3:53 AM,30.9,27.0,85,30.40,10.0,Calm,Calm,-,N/A,,Clear,0,2012-11-28 09:53:00
4:53 AM,30.0,26.1,85,30.40,10.0,Calm,Calm,-,N/A,,Clear,0,2012-11-28 10:53:00
5:53 AM,30.0,26.1,85,30.42,10.0,Calm,Calm,-,N/A,,Clear,0,2012-11-28 11:53:00
6:53 AM,28.9,26.1,89,30.44,10.0,Calm,Calm,-,N/A,,Clear,0,2012-11-28 12:53:00
7:53 AM,32.0,27.0,82,30.46,10.0,Calm,Calm,-,N/A,,Clear,0,2012-11-28 13:53:00
8:53 AM,41.0,33.1,73,30.48,10.0,Calm,Calm,-,N/A,,Clear,0,2012-11-28 14:53:00
9:53 AM,50.0,37.9,63,30.48,10.0,South,9.2,-,N/A,,Clear,180,2012-11-28 15:53:00
10:53 AM,55.0,37.0,51,30.47,10.0,SSE,13.8,-,N/A,,Clear,160,2012-11-28 16:53:00
11:53 AM,57.9,37.0,46,30.44,10.0,South,17.3,-,N/A,,Clear,170,2012-11-28 17:53:00
12:53 PM,60.1,37.0,42,30.40,10.0,SE,13.8,-,N/A,,Clear,140,2012-11-28 18:53:00
1:53 PM,62.1,35.1,37,30.36,10.0,SSE,13.8,-,N/A,,Clear,160,2012-11-28 19:53:00
2:53 PM,63.0,34.0,34,30.33,10.0,SSE,9.2,19.6,N/A,,Clear,150,2012-11-28 20:53:00
3:53 PM,63.0,33.1,33,30.31,10.0,SSE,15.0,-,N/A,,Clear,160,2012-11-28 21:53:00
4:53 PM,61.0,33.1,35,30.31,10.0,SSE,10.4,-,N/A,,Clear,160,2012-11-28 22:53:00
5:53 PM,53.1,33.1,47,30.32,10.0,SSE,5.8,-,N/A,,Clear,160,2012-11-28 23:53:00
6:53 PM,50.0,33.1,52,30.34,10.0,SSE,5.8,-,N/A,,Clear,160,2012-11-29 00:53:00
7:53 PM,48.9,37.0,64,30.34,10.0,SE,5.8,-,N/A,,Clear,140,2012-11-29 01:53:00
8:53 PM,46.9,34.0,61,30.33,10.0,SSE,8.1,-,N/A,,Clear,160,2012-11-29 02:53:00
9:53 PM,50.0,34.0,54,30.30,10.0,SSE,9.2,-,N/A,,Clear,150,2012-11-29 03:53:00
10:53 PM,48.0,34.0,58,30.29,10.0,SSE,6.9,-,N/A,,Clear,150,2012-11-29 04:53:00
11:53 PM,44.1,34.0,68,30.30,10.0,South,6.9,-,N/A,,Clear,170,2012-11-29 05:53:00